Regional Weather Roundup
Issued by NWS

Home | Current Version | Previous Version | Graphics & Text | Print | Product List | Glossary On
Versions: 1 2 3 4 5 6 7 8 9 10 11 12 13 14 15 16 17 18 19 20 21 22 23 24 25 26 27 28 29 30 31 32 33 34 35 36 37 38 39 40 41 42 43 44 45 46 47 48 49 50
000
ASUS43 KLOT 210203
RWRIL

ILLINOIS REGIONAL WEATHER ROUNDUP
NATIONAL WEATHER SERVICE CHICAGO/ROMEOVILLE IL
800 PM CST TUE FEB 20 2018

NOTE: "FAIR" INDICATES FEW OR NO CLOUDS BELOW 12,000 FEET WITH NO
SIGNIFICANT WEATHER AND/OR OBSTRUCTIONS TO VISIBILITY.

* THESE STATIONS ARE NOT UNDER NWS QUALITY CONTROL. THEY ALSO MAY NOT
  REPORT WEATHER SUCH AS PRECIPITATION OR FOG.

ILZ001-002-007-009-015-016-024-210300-
NORTHWEST ILLINOIS

CITY           SKY/WX    TMP DP  RH WIND       PRES   REMARKS
MOLINE         CLOUDY    29  23  78 NW16      30.16R WCI  17
STERLING*        N/A    N/A N/A N/A MISG        N/A
SAVANNA*       CLOUDY    29  23  78 W14G21    30.14R WCI  18
$$

ILZ003-004-008-010-011-017-018-210300-
NORTH CENTRAL ILLINOIS

CITY           SKY/WX    TMP DP  RH WIND       PRES   REMARKS
ROCKFORD       CLOUDY    31  26  82 NW16G25   30.11R WCI  20
FREEPORT*      MOCLDY    29  24  82 NW16G24   30.11R WCI  17
ROCHELLE*      CLOUDY    32  30  93 W13       30.12R WCI  22
DE KALB*       CLOUDY    32  32  99 W13G18    30.08R WCI  23
PERU*          DRIZZLE   31  29  92 CALM      30.12R
$$

ILZ005-006-012>014-019>023-210300-
NORTHEAST ILLINOIS

CITY           SKY/WX    TMP DP  RH WIND       PRES   REMARKS
CHICAGO-OHARE  LGT RAIN  37  34  89 W7        30.05S WCI  32
CHICAGO-MIDWAY LGT RAIN  39  39 100 NW8       30.06R WCI  33
AURORA         LGT RAIN  34  33  96 W13       30.07R WCI  25
LANSING*       LGT RAIN  40  40 100 W6        30.07R
JOLIET*        RAIN      37  37  97 NW5       30.09R WCI  34
WAUKEGAN       LGT RAIN  35  34  96 W6        30.05R WCI  30
DUPAGE AIRPORT LGT RAIN  34  33  96 W9        30.06R FOG     WCI  27
KANKAKEE*      LGT RAIN  38  38  98 NW10G16   30.11R WCI  31
WHEELING       MIX PCPN  37  34  89 NW9       30.06R WCI  30
MORRIS*        RAIN      35  33  93 NW13      30.08R WCI  26
ROMEOVILLE*    RAIN      36  35  94 NW10      30.08R WCI  28
NORTHERLY ISL    N/A     38  34  85 NW16        N/A  WCI  29
$$

LMZ740>746-210300-
SOUTHERN LAKE MICHIGAN

STATION/POSITION SKY/WX   TEMP    WIND        PRES    VSBY  WAVE
                          AIR SEA DIR/SP/G                  HT/PER
                          (F)     (DEG/KT/KT) (MB)    (MI)  (FT/S)
HARRISON CRIB              39     290/ 11/ 12   N/A
BURNHAM HARBOR             38     300/  7/ 15   N/A
CALUMET HARBOR             40     270/  5/ 11 1017.2R
BURNS HARBOR               47     270/ 15/ 18 1017.3
MICHIGAN CITY              37     300/ 10/ 11   N/A
$$

ILZ025>027-034>036-040-047-049-050-058-095>099-210300-
WEST-CENTRAL ILLINOIS

CITY           SKY/WX    TMP DP  RH WIND       PRES   REMARKS
QUINCY         FRZ RAIN  30  27  88 NW16G24   30.17R FOG     WCI  19
GALESBURG*     CLOUDY    29  27  90 NW13      30.16R WCI  19
JACKSONVILLE*  MIX PCPN  32  31  94 N14       30.13S WCI  22
PITTSFIELD*    RAIN      33  32  96 NW14G21   30.15R WCI  23
$$

ILZ028>032-037-038-041>044-048-051>054-059>061-210300-
CENTRAL ILLINOIS

CITY           SKY/WX    TMP DP  RH WIND       PRES   REMARKS
PONTIAC        DRIZZLE   36  35  98 NW14      30.12S WCI  27
BLOOMINGTON    MIX PCPN  35  34  96 N16       30.09S WCI  25
DECATUR        HVY RAIN  40  40 100 NW14      30.09R FOG
PEORIA         LGT RAIN  33  30  88 NW8G21    30.13R WCI  26
LACON*         LGT RAIN  32  31  98 NW10      30.13R WCI  24
LINCOLN*       LGT RAIN  37  36  99 NW9G17    30.12R WCI  30
SPRINGFIELD    LGT RAIN  36  33  89 NW12      30.11R WCI  28
TAYLORVILLE    LGT RAIN  37  37  98 N15       30.09F WCI  28
$$

ILZ033-039-045-046-055>057-062-063-210300-
EAST-CENTRAL ILLINOIS

CITY           SKY/WX    TMP DP  RH WIND       PRES   REMARKS
CHAMPAIGN      HVY RAIN  44  44 100 NW17      30.07R FOG
DANVILLE*      HVY RAIN  48  48  98 NW14      30.04R
RANTOUL*       LGT RAIN  43  43  99 N15       30.08R
MATTOON        LGT RAIN  50  50 100 NW16      30.04R
PARIS*         CLOUDY    58  56  91 N8        30.04R
$$

ILZ079-100>102-210300-
SOUTHWEST ILLINOIS

CITY           SKY/WX    TMP DP  RH WIND       PRES   REMARKS
ALTON          LGT RAIN  37  37 100 NW7G16    30.09R WCI  32
BELLEVILLE     HVY RAIN  43  40  90 N15G24    30.05R FOG
CAHOKIA*       HVY RAIN  41  39  93 NW21      30.07  FOG
SPARTA*        LGT RAIN  51  51 100 NW21G29   30.02R
$$

ILZ064>066-069>071-074>076-080>082-084>086-088>090-092>094-210300-
SOUTH-CENTRAL ILLINOIS

CITY           SKY/WX    TMP DP  RH WIND       PRES   REMARKS
CARBONDALE     MOCLDY    71  61  70 S17G24    29.98F
CAIRO*         FAIR      70  61  74 S16G22    30.02F
EFFINGHAM*     CLOUDY    58  56  91 NW10G24   30.02S
MARION         FAIR      71  60  70 S15G23    30.01F
MT. VERNON     FAIR      69  60  73 S13G21    29.98F
CENTRALIA*     LGT RAIN  58  57  94 N9G17     29.99R
SALEM*         LGT RAIN  62  56  81 NW16      29.99S
METROPOLIS*    CLOUDY    72  60  66 S9        30.05F
$$

ILZ067-068-072-073-078-083-087-091-210300-
SOUTHEAST ILLINOIS

CITY           SKY/WX    TMP DP  RH WIND       PRES   REMARKS
LAWRENCEVILLE  FAIR      66  58  75 S10       30.04F
FLORA*         MOCLDY    67  59  76 S9        30.00F
FAIRFIELD*     FAIR      68  59  72 SE8       30.00F
HARRISBURG*    MOCLDY    70  61  74 S15       30.03F
ROBINSON*      FAIR      66  56  70 S10G20    30.03F
CARMI*         MOCLDY    67  60  79 S13       30.03F
$$

ABBREVIATIONS USED IN REMARKS
   TC - TEMPERATURE IN CELSIUS
  WCI - WIND CHILL INDEX
   HX - HEAT INDEX
  VSB - VISIBILITY
$$





USA.gov is the U.S. government's official web portal to all federal, state and local government web resources and services.